www.pogodaiklimat.ru

Погода и климат >> Архив погоды >> Иран >> Kermanshah


ПОГОДА в Kermanshah

  • Прогноз погоды в Kermanshah
  • Монитор погоды в Kermanshah
  • Климат города

АРХИВ ПОГОДЫ в Kermanshah

Время (UTC), дата Ветер
(напр.,м/с)
 
Видим.   Явления Облачность Т
(С)
Тd
(С)
f
(%)
Тe
(С)
Тes
(С)
Комфортность P
(гПа)
Po
(гПа)
Тmin
(С)
Tmax
(С)
R
(мм)
R24
(мм)
S
(см)
12 12.07 В 4 15 км ясно +40.1 -9.9 4 +36 +44 очень
жарко
994.5 861.5
15 12.07 В 4 15 км ясно +38.3 -8.5 5 +34 +34 очень
жарко
994.5 860.2 +40.7
18 12.07 В 5 10 км ясно +34.6 -9.3 5 +30 +30 жарко 992.7 859.9
21 12.07 ЮВ 5 10 км ясно +28.7 -9.4 8 +25 +25 комфорт 994.3 860.6
00 13.07 З 2 10 км ясно +23.9 -5.9 13 +22 +22 комфорт 995.4 860.9
03 13.07 В 2 13 км ясно +23.7 -3.1 17 +22 +23 комфорт 996.0 861.0 +21.4
06 13.07 СВ 2 10 км ясно +34.0 -5.8 7 +30 +43 жарко 994.9 861.4
09 13.07 В 4 10 км ясно +39.0 -10.6 4 +34 +49 очень
жарко
994.0 860.4
12 13.07 ЮВ 3 10 км ясно +40.3 -9.5 4 +36 +46 очень
жарко
993.1 858.9
15 13.07 СЗ 7 10 км ясно +37.2 -2.4 8 +33 +33 жарко 992.8 858.0 +41.2
18 13.07 З 8 9000 м пыль ясно +30.6 -0.3 14 +28 +28 жарко 993.5 859.4
21 13.07 З 3 10 км ясно +26.2 -0.5 17 +24 +24 комфорт 993.8 859.9
00 14.07 В 3 10 км ясно +24.1 -0.2 20 +23 +23 комфорт 993.7 859.6
03 14.07 штиль 0 10 км ясно +20.1 -0.4 25 +20 +22 995.1 859.7 +18.9
06 14.07 В 3 10 км ясно +31.6 -2.0 11 +28 +39 жарко 994.5 859.8
09 14.07 Ю 5 10 км ясно +38.5 -11.5 4 +34 +45 очень
жарко
992.4 858.3
12 14.07 Ю 8 10 км ясно +39.0 -8.1 5 +34 +36 очень
жарко
991.8 857.4
15 14.07 СЗ 7 10 км ясно +34.0 -2.5 10 +30 +30 жарко 994.3 858.0 +40.5
18 14.07 СЗ 6 10 км ясно +29.3 -5.4 10 +26 +26 жарко 994.8 859.8
21 14.07 СЗ 3 10 км ясно +24.8 -2.1 17 +23 +23 комфорт 994.0 859.8
00 15.07 З 3 10 км ясно +21.2 -0.4 24 +21 +21 комфорт 995.0 859.9
03 15.07 штиль 0 10 км ясно +18.6 +0.2 29 +19 +20 997.3 860.3 +17.4
06 15.07 З 2 15 км ясно +29.2 -1.8 13 +26 +39 жарко 996.5 860.8
09 15.07 СЗ 3 15 км 6/0
[Ci fib]
+33.4 -8.8 6 +29 +44 жарко 996.1 860.3
12 15.07 ЮЗ 6 10 км ясно +35.3 -11.4 4 +31 +35 жарко 995.2 859.1
15 15.07 ЮЗ 4 10 км ясно +33.9 -6.1 7 +30 +30 жарко 995.6 858.7 +35.9
18 15.07 З 4 10 км ясно +28.0 -2.8 13 +25 +25 комфорт 995.9 860.0
21 15.07 З 3 10 км ясно +25.4 -0.4 18 +24 +24 комфорт 995.4 860.0
00 16.07 В 2 10 км ясно +20.3 -1.1 24 +21 +21 комфорт 996.2 859.9
03 16.07 ЮВ 2 10 км ясно +18.7 -1.0 26 +19 +21 997.8 860.8 +17.4
06 16.07 штиль 0 10 км ясно +29.8 -1.1 13 +27 +44 жарко 996.3 860.8
09 16.07 З 3 10 км ясно +34.3 -5.3 8 +30 +48 жарко 995.1 859.8
12 16.07 З 2 10 км 1/1 1350 м
[Cu hum]
+34.9 -4.8 8 +31 +41 жарко 994.7 858.5
15 16.07 ЮЗ 4 10 км ясно +34.6 -7.1 7 +30 +31 жарко 995.1 858.4 +36.2
18 16.07 З 6 13 км ясно +28.6 +2.5 19 +27 +27 жарко 995.6 860.1
21 16.07 СЗ 4 12 км ясно +25.2 +4.3 26 +25 +25 комфорт 995.1 860.0
00 17.07 В 2 10 км ясно +20.2 +4.1 35 +21 +21 комфорт 996.9 860.6
03 17.07 ЮВ 2 10 км ясно +18.4 +3.3 37 +19 +20 996.9 860.3 +17.1
06 17.07 В 2 10 км ясно +29.7 +2.8 18 +28 +41 жарко 995.3 859.9
09 17.07 С 3 10 км ясно +35.4 +1.7 12 +32 +50 жарко 993.6 858.8
12 17.07 Ю 6 15 км 9/0
[Ci fib]
+38.0 -6.2 6 +34 +37 очень
жарко
993.0 857.6
15 17.07 ЮЗ 4 15 км 9/0
[Ci fib]
+36.1 -8.2 6 +32 +32 жарко 993.9 857.6 +39.1
18 17.07 З 7 10 км ясно +30.0 +1.4 16 +27 +27 жарко 993.6 858.6
21 17.07 штиль 0 10 км ясно +25.8 +2.3 22 +25 +25 комфорт 993.6 858.9
00 18.07 В 3 10 км ясно +19.8 +1.7 30 +20 +20 995.0 859.4
03 18.07 В 2 12 км ясно +20.3 +2.3 30 +21 +22 комфорт 996.2 860.2 +16.8
06 18.07 В 3 10 км 4/0
[Ac trans]
+31.6 +1.7 15 +29 +37 жарко 995.0 860.2
09 18.07 В 4 10 км ясно +38.6 -5.2 6 +34 +48 очень
жарко
993.3 859.1
12 18.07 СЗ 2 10 км ясно +40.3 -3.4 6 +36 +48 очень
жарко
993.0 858.0
15 18.07 З 5 10 км ясно +38.3 -3.4 7 +34 +34 очень
жарко
993.8 858.4 +41.0
18 18.07 З 3 10 км ясно +31.5 -0.5 13 +28 +28 жарко 994.4 860.0
21 18.07 СЗ 4 10 км ясно +28.5 -1.5 14 +26 +26 жарко 993.5 860.0
00 19.07 штиль 0 10 км ясно +22.2 -0.5 22 +21 +21 комфорт 994.9 860.2
03 19.07 штиль 0 10 км 5/1 1350 м
[Cu hum Ac trans]
+21.2 +1.0 26 +21 +22 комфорт 996.7 861.3 +19.6
06 19.07 ЮВ 3 10 км 1/0
[Ac trans]
+32.8 -1.9 11 +29 +39 жарко 996.3 861.8

 

Местоположение метеостанции Kermanshah (Иран): широта 34.27 долгота 47.12 высота над уровнем моря 1322 м.

В архиве по умолчанию представлена погода в Kermanshah за последнюю неделю. Архивные данные за месяц целиком и за предыдущие месяцы, начиная с января 2011 года, Вы можете получить, выбрав интересующий диапазон дат из раскрывающегося списка и нажав кнопку "Ввод!".


*Определитесь, кто Вы:
робот инопланетянин человек

Внимание! Время в таблицах - всемирное. Для получения местного времени необходимо прибавить поправку, которая в Kermanshah равна 3.5 ч.

Смотрите также архив погоды в соседних городах и на ближайших метеорологических станциях:

Погода в Ilam (Иран) (95 км)
Погода в Sanandaj (Иран) (118 км)
Погода в Hamedan (Иран) (144 км)
Погода в Khorram Abad (Иран) (145 км)
Погода в Halabcha (Ирак) (149 км)
Погода в Khanaqin (Ирак) (155 км)
Погода в Badrah (Ирак) (169 км)
Погода в Ali Al-Gharbi (Ирак) (204 км)
Погода в Sulaimaniya (Ирак) (208 км)
Погода в Saghez (Иран) (233 км)

Пояснения к столбцам:

Ветер - указаны скорость ветра в м/с - средняя за 10 мин, порывы в срок и между сроками (в фигурных скобках) и направление, откуда дует ветер: С - северный, СВ - северо-восточный, В - восточный, ЮВ - юго-восточный, Ю - южный, ЮЗ - юго-западный, З - западный, СЗ - северо-западный.
Видимость - горизонтальная дальность видимости в метрах или километрах. При видимости от 1 до 10 км при отсутствии осадков обычно наблюдается дымка, при ухудшении видимости до 1 км и менее - туман. В сухую погоду видимость может ухудшаться дымом, пылью или мглою.
Явления - указаны атмосферные явления, наблюдавшиеся в срок или в последний час перед сроком; фигурными скобками обозначены явления, наблюдавшиеся между сроками (за 1-3 часа до срока); квадратными скобками обозначены град или гололедные отложения с указанием их диаметра в мм.
Облачность - указаны через наклонную черту общая и нижняя облачность в баллах и высота нижней границы облаков в метрах; квадратными скобками обозначены формы облаков: Ci - перистые, Cs - перисто-слоистые, Cc - перисто-кучевые, Ac - высококучевые, As - высокослоистые, Sc - слоисто-кучевые, Ns - слоисто-дождевые, Cu - кучевые, Cb - кучево-дождевые. Подробнее классификацию облаков см. в Атласе облаков (PDF).
T - Температура воздуха - температура, измеренная на высоте 2 м над землей.
Td - Температура точки росы - температура, при понижении до которой содержащийся в воздухе водяной пар достигнет насыщения.
f - Относительная влажность воздуха - влажноcть воздуха, измеренная на высоте 2 м над землей.
Te - Эффективная температура - температура, которую ощущает одетый по сезону человек в тени. Характеристика душности погоды. При расчете учитывается влияние влажности воздуха и скорости ветра на теплоощущения человека.
Tes - Эффективная температура на солнце - температура, которую ощущает человек, с поправкой на солнечный нагрев. Характеристика знойности погоды. Зависит от высоты солнца над горизонтом, облачности и скорости ветра. Ночью, в пасмурную погоду, а также при ветре 12 м/с и более поправка равна нулю.
P - Атмосферное давление - приведенное к уровню моря атмосферное давление.
Po - Атмосферное давление - измеренное на уровне метеостанции атмосферное давление.
Tmin - Минимальная температура - минимум температуры воздуха на высоте 2 м над землей.
Tmax - Максимальная температура - максимум температуры воздуха на высоте 2 м над землей.
R - Количество осадков - Количество выпавших осадков за период времени, мм. При наведении курсора мыши на число - период времени, за который выпало указанное количество осадков.
R24 - Количество осадков - Количество выпавших осадков за 24 часа, мм.
S - Снежный покров - Высота снежного покрова, см. При наведении курсора мыши на число - состояние снежного покрова и степень покрытия местности в баллах.